When you browse on this site, cookies collect data to enhance your experience and personalize the content and advertising you see.
Visit our Privacy Policy to learn more. By continuing to use the site, you agree to this use of cookies and data.

Hourly Weather Stirling

Today, 5 August, Wednesday

Time Temperature Precipitation Wind Pressure Humidity
00:00 +15°C° 0 mm 4 mps 748 mmHg 92%
01:00 +14°C° 0 mm 4 mps 748 mmHg 93%
02:00 +14°C° 0 mm 3 mps 748 mmHg 94%
03:00 +14°C° 0 mm 3 mps 749 mmHg 94%
04:00 +14°C° 0 mm 3 mps 749 mmHg 95%
05:00 +14°C° 0 mm 3 mps 749 mmHg 95%
06:00 +15°C° 0 mm 2 mps 749 mmHg 95%
07:00 +16°C° 0 mm 3 mps 749 mmHg 93%
08:00 +17°C° 0 mm 3 mps 750 mmHg 90%
09:00 +18°C° 0 mm 3 mps 750 mmHg 87%
10:00 +18°C° 0 mm 3 mps 750 mmHg 84%
11:00 +19°C° 0 mm 3 mps 750 mmHg 81%
12:00 +20°C° 0 mm 3 mps 750 mmHg 79%
13:00 +19°C° 1 mm 2 mps 750 mmHg 84%
14:00 +18°C° 1 mm 2 mps 751 mmHg 90%
15:00 +18°C° 1 mm 1 mps 751 mmHg 95%
16:00 +18°C° 0.4 mm 1 mps 751 mmHg 96%
17:00 +17°C° 0.4 mm 2 mps 751 mmHg 96%
18:00 +17°C° 0.4 mm 2 mps 752 mmHg 96%
19:00 +17°C° 0.1 mm 2 mps 752 mmHg 96%
20:00 +17°C° 0.1 mm 2 mps 753 mmHg 96%
21:00 +16°C° 0.1 mm 2 mps 754 mmHg 96%
22:00 +16°C° 0 mm 2 mps 754 mmHg 96%
23:00 +15°C° 0 mm 2 mps 755 mmHg 96%

Tomorrow, 6 August, Thursday

Time Temperature Precipitation Wind Pressure Humidity
00:00 +13°C° 0 mm 3 mps 755 mmHg 95%
01:00 +14°C° 0 mm 2 mps 756 mmHg 96%
02:00 +14°C° 0 mm 2 mps 756 mmHg 96%
03:00 +13°C° 0 mm 2 mps 757 mmHg 96%
04:00 +14°C° 0 mm 2 mps 757 mmHg 96%
05:00 +14°C° 0 mm 2 mps 758 mmHg 95%
06:00 +14°C° 0 mm 2 mps 758 mmHg 95%
07:00 +15°C° 0 mm 2 mps 758 mmHg 90%
08:00 +17°C° 0 mm 2 mps 759 mmHg 85%
09:00 +18°C° 0 mm 2 mps 759 mmHg 80%
10:00 +19°C° 0 mm 2 mps 759 mmHg 76%
11:00 +20°C° 0 mm 2 mps 760 mmHg 71%
12:00 +21°C° 0 mm 2 mps 760 mmHg 66%
13:00 +23°C° 0 mm 2 mps 760 mmHg 66%
14:00 +24°C° 0 mm 2 mps 760 mmHg 66%
15:00 +24°C° 0 mm 2 mps 760 mmHg 66%
16:00 +24°C° 0 mm 2 mps 759 mmHg 70%
17:00 +22°C° 0 mm 3 mps 759 mmHg 75%
18:00 +21°C° 0 mm 3 mps 759 mmHg 79%
19:00 +20°C° 0.1 mm 2 mps 759 mmHg 83%
20:00 +19°C° 0.1 mm 2 mps 759 mmHg 86%
21:00 +18°C° 0.1 mm 2 mps 760 mmHg 90%
22:00 +17°C° 0 mm 2 mps 760 mmHg 91%
23:00 +17°C° 0 mm 2 mps 759 mmHg 91%

Day after tomorrow, 7 August, Friday

Time Temperature Precipitation Wind Pressure Humidity
00:00 +16°C° 0 mm 2 mps 759 mmHg 92%
01:00 +16°C° 0 mm 1 mps 759 mmHg 92%
02:00 +16°C° 0 mm 1 mps 759 mmHg 92%
03:00 +16°C° 0 mm 1 mps 759 mmHg 92%
04:00 +16°C° 0 mm 1 mps 759 mmHg 92%
05:00 +16°C° 0 mm 1 mps 760 mmHg 92%
06:00 +16°C° 0 mm 1 mps 760 mmHg 93%
07:00 +18°C° 0 mm 1 mps 760 mmHg 89%
08:00 +19°C° 0 mm 2 mps 760 mmHg 85%
09:00 +20°C° 0 mm 2 mps 760 mmHg 82%
10:00 +21°C° 0.1 mm 3 mps 760 mmHg 79%
11:00 +22°C° 0.1 mm 3 mps 760 mmHg 76%
12:00 +23°C° 0.1 mm 4 mps 760 mmHg 73%
13:00 +23°C° 0.1 mm 4 mps 760 mmHg 74%
14:00 +23°C° 0.1 mm 4 mps 759 mmHg 75%
15:00 +23°C° 0.1 mm 4 mps 759 mmHg 76%
16:00 +22°C° 0.4 mm 4 mps 759 mmHg 80%
17:00 +22°C° 0.4 mm 4 mps 758 mmHg 83%
18:00 +21°C° 0.4 mm 4 mps 758 mmHg 87%
19:00 +20°C° 0.9 mm 4 mps 758 mmHg 90%
20:00 +19°C° 0.9 mm 4 mps 758 mmHg 92%
21:00 +18°C° 0.9 mm 4 mps 759 mmHg 94%
22:00 +17°C° 0.3 mm 4 mps 759 mmHg 94%
23:00 +15°C° 0.3 mm 4 mps 760 mmHg 93%

8 August, Saturday

Time Temperature Precipitation Wind Pressure Humidity
00:00 +14°C° 0.3 mm 4 mps 761 mmHg 93%
01:00 +13°C° 0 mm 4 mps 761 mmHg 92%
02:00 +12°C° 0 mm 3 mps 762 mmHg 91%
03:00 +10°C° 0 mm 3 mps 763 mmHg 91%
04:00 +10°C° 0 mm 3 mps 763 mmHg 91%
05:00 +10°C° 0 mm 2 mps 764 mmHg 91%
06:00 +10°C° 0 mm 2 mps 765 mmHg 91%
07:00 +13°C° 0 mm 2 mps 765 mmHg 85%
08:00 +14°C° 0 mm 2 mps 766 mmHg 80%
09:00 +16°C° 0 mm 3 mps 766 mmHg 74%
10:00 +17°C° 0 mm 3 mps 766 mmHg 69%
11:00 +18°C° 0 mm 2 mps 767 mmHg 64%
12:00 +19°C° 0 mm 2 mps 767 mmHg 59%
13:00 +19°C° 0 mm 2 mps 767 mmHg 58%
14:00 +20°C° 0 mm 2 mps 767 mmHg 58%
15:00 +20°C° 0 mm 2 mps 767 mmHg 57%
16:00 +20°C° 0 mm 2 mps 768 mmHg 61%
17:00 +19°C° 0 mm 2 mps 768 mmHg 65%
18:00 +19°C° 0 mm 2 mps 768 mmHg 68%
19:00 +18°C° 0 mm 1 mps 768 mmHg 72%
20:00 +15°C° 0 mm 1 mps 768 mmHg 76%
21:00 +13°C° 0 mm 1 mps 769 mmHg 79%
22:00 +13°C° 0 mm 1 mps 769 mmHg 81%
23:00 +12°C° 0 mm 1 mps 769 mmHg 83%

9 August, Sunday

Time Temperature Precipitation Wind Pressure Humidity
00:00 +12°C° 0 mm 1 mps 769 mmHg 85%
01:00 +10°C° 0 mm 0 mps 769 mmHg 87%
02:00 +10°C° 0 mm 0 mps 768 mmHg 88%
03:00 +10°C° 0 mm 0 mps 768 mmHg 89%
04:00 +10°C° 0 mm 0 mps 768 mmHg 88%
05:00 +11°C° 0 mm 0 mps 768 mmHg 88%
06:00 +12°C° 0 mm 1 mps 768 mmHg 87%
07:00 +14°C° 0 mm 1 mps 768 mmHg 82%
08:00 +15°C° 0 mm 1 mps 768 mmHg 77%
09:00 +17°C° 0 mm 2 mps 768 mmHg 72%
10:00 +18°C° 0 mm 2 mps 768 mmHg 68%
11:00 +19°C° 0 mm 2 mps 768 mmHg 63%
12:00 +20°C° 0 mm 3 mps 768 mmHg 59%
13:00 +20°C° 0 mm 3 mps 767 mmHg 59%
14:00 +20°C° 0 mm 4 mps 767 mmHg 59%
15:00 +19°C° 0 mm 4 mps 767 mmHg 60%
16:00 +19°C° 0 mm 4 mps 767 mmHg 64%
17:00 +18°C° 0 mm 3 mps 767 mmHg 68%
18:00 +17°C° 0 mm 3 mps 767 mmHg 72%
19:00 +14°C° 0 mm 3 mps 767 mmHg 79%
20:00 +14°C° 0 mm 2 mps 767 mmHg 86%
21:00 +12°C° 0 mm 2 mps 767 mmHg 93%
22:00 +12°C° 0 mm 2 mps 767 mmHg 94%
23:00 +10°C° 0 mm 2 mps 767 mmHg 95%

10 August, Monday

Time Temperature Precipitation Wind Pressure Humidity
00:00 +10°C° 0 mm 2 mps 767 mmHg 95%
01:00 +10°C° 0 mm 2 mps 766 mmHg 95%
02:00 +10°C° 0 mm 2 mps 766 mmHg 95%
03:00 +10°C° 0 mm 2 mps 766 mmHg 95%
04:00 +10°C° 0 mm 2 mps 766 mmHg 94%
05:00 +12°C° 0 mm 2 mps 766 mmHg 92%
06:00 +12°C° 0 mm 2 mps 765 mmHg 91%
07:00 +13°C° 0 mm 2 mps 765 mmHg 87%
08:00 +13°C° 0 mm 3 mps 765 mmHg 83%
09:00 +14°C° 0 mm 3 mps 765 mmHg 80%
10:00 +16°C° 0 mm 3 mps 765 mmHg 76%
11:00 +17°C° 0 mm 3 mps 765 mmHg 73%
12:00 +18°C° 0 mm 4 mps 765 mmHg 69%
13:00 +18°C° 0 mm 4 mps 764 mmHg 68%
14:00 +18°C° 0 mm 4 mps 764 mmHg 68%
15:00 +18°C° 0 mm 4 mps 764 mmHg 67%
16:00 +18°C° 0 mm 3 mps 764 mmHg 70%
17:00 +17°C° 0 mm 3 mps 763 mmHg 73%
18:00 +16°C° 0 mm 3 mps 763 mmHg 75%
19:00 +15°C° 0.1 mm 2 mps 763 mmHg 79%
20:00 +14°C° 0.1 mm 2 mps 763 mmHg 82%
21:00 +13°C° 0.1 mm 1 mps 763 mmHg 86%
22:00 +13°C° 0.3 mm 1 mps 763 mmHg 87%
23:00 +13°C° 0.3 mm 1 mps 763 mmHg 88%
Show more